Theta_e
317 318 321 321 322 326 328 330 331 331 330 331 332 333 334 333 332 333 334 333 333 333 333 331 331 332 331 331 331 330 331 332 332 333 333 333 332 330 330 330 330 330 331 332 332 331 331 330 330 331 332 332 329 326 326 325 324 322 320 319 317 316 314 315 319 328 336 340 340 340 341 340 338 336 337 338 337 337 336 336 337 339 338 331 332
314 315 317 318 320 321 324 327 329 330 330 331 331 333 333 332 332 333 333 334 334 333 333 333 333 333 333 332 332 332 331 332 333 333 333 334 334 333 332 332 331 331 331 331 332 332 332 331 331 331 331 332 330 328 327 326 326 325 323 321 319 318 316 314 315 320 329 337 340 340 340 340 340 338 338 338 337 336 336 338 338 339 341 335 333
313 314 314 314 316 317 319 323 325 327 328 329 330 331 332 332 332 332 332 332 333 332 332 333 333 334 334 334 333 333 332 333 333 334 334 334 335 335 334 333 333 333 332 332 333 333 332 331 331 331 331 331 330 329 329 327 327 326 325 322 320 319 318 316 314 316 322 330 337 340 340 340 340 340 338 338 337 335 334 338 340 340 342 339 335
314 314 313 314 314 314 315 316 319 323 326 327 327 328 329 330 330 330 330 330 331 331 331 331 332 334 334 334 334 334 334 334 334 334 334 334 335 335 334 334 334 334 333 332 333 334 334 332 331 331 331 331 331 330 329 328 327 327 327 325 321 319 319 318 316 314 316 323 331 336 339 340 340 340 340 339 338 336 332 334 339 341 342 341 337
314 313 313 313 313 313 313 313 314 316 320 323 326 327 327 327 327 328 329 330 331 331 330 330 331 332 333 333 334 335 335 335 335 335 335 334 335 335 335 334 334 334 333 333 334 334 334 334 332 331 330 331 331 330 329 328 327 328 328 328 325 321 318 318 318 316 314 317 324 332 337 339 340 341 340 339 339 337 333 331 337 341 341 341 337
313 312 312 312 312 312 313 313 313 313 313 316 320 323 325 325 326 326 326 327 329 329 330 330 331 331 331 332 332 333 334 334 334 334 334 334 335 335 335 334 334 334 334 335 335 335 335 334 333 333 331 330 330 330 329 328 327 327 327 329 330 325 319 316 316 317 315 314 318 327 335 338 339 340 340 340 339 338 333 330 334 339 341 342 339
312 311 311 310 310 311 311 312 312 313 312 312 313 315 317 319 321 322 323 325 326 327 328 329 329 330 330 330 331 332 332 332 332 332 333 333 333 333 334 333 334 334 334 335 335 335 335 335 334 334 333 331 331 330 329 328 328 328 327 328 330 330 326 321 317 315 315 314 314 320 330 337 339 339 340 340 340 339 336 332 334 338 340 342 341
311 310 309 309 309 309 310 310 310 311 311 312 312 312 312 313 314 315 317 319 321 323 325 327 328 328 329 329 329 330 330 330 330 330 331 332 332 332 333 333 333 333 333 334 334 335 335 335 335 335 334 333 332 331 330 329 328 328 328 327 329 331 331 330 325 320 316 314 312 313 322 331 336 338 339 339 340 340 338 335 335 337 339 341 342
310 309 308 308 308 308 309 309 309 309 309 310 310 311 311 311 312 312 312 313 314 315 317 319 322 324 326 327 328 328 328 328 328 328 329 330 331 331 332 332 332 333 332 333 334 335 335 336 335 335 335 334 333 331 331 330 328 328 327 327 328 329 330 332 332 330 325 321 316 311 312 320 329 334 337 338 339 341 338 334 335 337 339 341 342
309 308 307 307 307 308 308 308 308 308 308 308 309 309 309 309 310 310 311 311 311 311 312 313 314 316 318 320 322 324 325 325 325 326 326 327 328 329 330 331 332 332 332 333 333 334 334 334 335 335 335 335 334 332 332 331 329 328 327 327 327 327 329 330 332 332 332 332 328 321 313 311 318 327 334 337 337 340 340 333 332 338 340 340 342
307 307 307 307 307 307 307 307 307 307 307 307 307 307 308 308 308 308 309 309 310 310 311 311 311 312 312 313 314 316 318 319 321 322 323 324 325 325 326 327 328 330 331 332 332 332 333 333 333 333 333 333 332 332 332 331 330 328 327 327 327 327 327 328 329 331 332 335 335 333 325 314 310 315 324 333 336 338 340 335 330 334 338 339 340
306 306 306 306 306 306 306 306 306 306 306 306 306 306 306 306 307 307 307 307 308 308 308 309 310 310 311 311 311 312 313 314 315 317 318 320 321 322 323 324 324 325 326 327 328 329 330 331 332 331 331 330 330 330 330 331 330 329 328 327 327 327 327 327 327 328 330 332 334 335 333 325 315 310 314 322 332 337 339 338 332 331 336 338 338
306 306 306 306 306 306 306 306 306 306 306 305 305 305 305 305 305 305 305 305 305 306 306 306 307 307 308 309 309 310 311 311 312 313 314 315 317 318 320 321 322 322 323 323 325 326 327 329 330 331 331 330 330 329 329 330 330 330 329 328 327 327 327 327 327 325 326 328 330 332 333 331 326 317 312 313 322 333 338 339 334 331 335 338 337
306 305 305 306 306 306 306 306 305 305 305 304 304 303 303 303 303 302 303 303 303 303 303 303 304 304 305 305 306 307 308 308 309 310 311 312 312 314 315 317 318 319 321 322 323 324 325 326 328 329 330 330 330 329 329 329 329 329 330 330 329 328 327 327 327 325 324 325 325 326 329 331 331 327 321 314 313 324 335 339 337 333 335 338 338
305 305 305 306 305 306 305 305 305 304 304 303 303 302 302 302 302 302 302 302 302 302 302 302 302 302 302 302 303 303 304 305 305 306 307 308 309 310 311 312 313 314 316 317 319 320 322 323 324 326 327 328 329 330 330 329 329 329 329 330 329 328 327 327 327 326 325 325 324 323 324 326 329 331 329 323 314 314 326 337 339 336 334 336 338
305 305 305 305 305 305 305 305 304 303 303 302 302 302 302 302 302 302 302 302 302 301 301 301 301 301 301 301 301 301 301 301 302 302 303 304 305 306 307 308 309 310 311 312 313 315 316 318 319 321 322 323 325 327 330 330 330 329 329 329 329 328 328 327 327 327 326 326 325 324 323 322 324 327 330 330 324 316 316 327 338 339 335 335 337
305 305 305 305 305 304 304 304 303 302 302 302 302 302 302 302 302 302 302 302 302 302 302 301 301 301 301 301 301 301 301 301 301 301 301 301 301 302 303 304 304 306 307 308 309 310 311 312 314 315 316 318 319 321 324 327 329 330 330 329 328 328 327 326 326 326 326 326 327 327 325 323 322 321 324 329 329 325 318 318 328 337 338 336 336
304 305 305 305 304 304 303 302 302 301 301 302 302 302 302 302 302 302 302 302 302 302 302 301 301 301 301 301 301 301 301 301 301 300 300 300 300 300 300 301 301 302 302 304 305 306 307 308 309 310 311 312 314 315 317 320 323 325 327 328 329 329 328 326 326 325 325 324 324 326 327 326 323 320 320 324 327 329 326 320 319 327 336 337 337
304 304 304 304 304 303 302 302 301 301 301 302 302 302 302 302 302 302 302 302 302 301 301 301 301 301 301 301 301 301 301 301 301 301 300 300 300 300 300 300 300 300 300 301 301 302 303 304 305 306 307 308 309 311 312 313 315 317 319 322 325 327 328 327 326 325 324 323 322 322 323 325 326 324 321 321 323 326 329 327 322 319 327 334 337
304 304 304 304 303 302 302 301 301 301 301 302 302 302 302 302 302 302 302 302 301 301 301 301 301 301 301 301 301 301 301 301 300 300 300 300 300 300 300 300 300 300 300 300 300 300 300 300 301 302 303 304 305 306 308 309 310 312 313 315 317 320 323 325 326 326 325 324 323 321 320 321 322 324 325 323 322 323 325 328 328 323 322 328 334
304 303 303 303 302 302 301 301 301 301 301 302 302 302 302 302 302 302 301 301 301 301 301 301 301 301 300 301 300 300 300 300 300 300 300 300 300 300 300 300 300 300 299 300 300 300 299 300 300 300 300 300 301 302 303 305 306 308 309 310 312 313 316 319 321 323 325 325 325 324 322 320 319 320 323 325 324 322 322 324 327 328 324 325 330
303 303 303 303 302 302 301 301 301 301 301 301 302 301 302 302 301 301 301 301 301 301 301 300 301 300 300 300 300 300 300 300 300 300 300 299 299 299 299 299 299 299 299 299 299 299 299 299 299 299 299 299 299 300 300 301 302 303 305 306 307 309 310 312 315 317 320 322 323 323 322 321 320 319 320 325 327 325 323 322 324 327 328 326 327
303 303 303 303 302 302 301 301 301 301 301 301 301 301 301 301 301 301 301 301 301 301 300 300 300 300 300 300 300 300 300 300 300 300 299 299 299 299 299 299 299 299 299 299 299 299 299 299 299 299 299 299 299 299 299 299 300 300 301 302 303 304 306 307 310 312 314 316 318 318 319 319 319 318 318 322 328 329 326 323 322 324 328 328 327
303 303 302 302 302 301 301 301 301 301 301 301 301 301 301 301 301 301 301 301 301 301 301 300 300 300 300 300 300 300 300 300 300 299 299 299 299 299 299 299 299 299 299 299 299 299 299 299 299 299 299 299 299 299 299 299 299 299 299 299 300 301 302 303 304 306 309 312 314 315 316 316 316 317 316 317 324 329 329 326 324 323 325 328 328
303 303 302 302 301 301 301 300 300 300 300 301 301 301 301 301 301 301 301 301 301 301 300 300 300 300 300 300 300 300 300 300 299 299 299 299 299 299 299 299 299 299 299 299 299 299 299 299 299 299 299 298 298 299 299 299 299 299 299 299 299 299 299 300 301 302 304 307 310 313 315 315 315 315 316 316 319 326 329 328 326 325 325 326 327
303 302 302 301 301 301 300 300 300 300 300 300 300 300 300 301 301 300 300 300 300 300 300 300 300 300 300 300 300 300 300 299 299 299 299 298 298 298 298 298 298 298 298 298 298 298 299 299 299 299 299 298 298 298 298 298 298 299 299 299 299 299 299 299 299 300 301 302 305 308 312 315 315 315 316 317 317 321 327 328 326 326 326 326 326
303 302 302 301 301 301 300 300 300 300 300 300 300 300 300 300 300 300 300 300 299 299 299 299 300 300 300 300 300 300 299 299 299 298 298 298 298 297 297 297 297 297 298 298 298 298 298 298 298 298 298 298 298 298 298 298 298 298 298 298 298 298 299 299 298 298 299 300 301 303 307 311 315 316 316 316 317 319 324 327 328 327 326 327 327
302 302 302 301 301 301 300 300 300 300 300 300 300 300 300 300 300 300 299 299 299 299 299 299 299 299 299 300 299 299 299 299 299 298 298 297 297 297 297 297 297 297 297 297 297 297 297 297 297 298 298 298 298 298 298 298 298 298 298 298 298 298 298 298 299 299 298 298 299 300 301 304 309 314 316 317 317 317 320 324 327 328 326 326 327
302 302 302 302 301 301 300 300 300 300 300 300 300 300 300 300 300 299 299 299 299 299 299 299 299 299 299 299 299 299 298 298 298 298 297 297 297 297 296 296 296 296 296 296 296 296 296 296 296 297 297 297 297 297 297 297 298 298 298 298 298 298 298 298 298 299 299 298 299 299 299 300 302 307 312 316 317 318 318 319 322 325 327 326 326
302 302 302 301 301 301 300 300 300 300 300 300 300 300 300 299 299 299 299 299 299 299 299 299 299 299 299 299 298 298 297 297 297 297 297 297 296 296 296 296 296 296 296 296 296 296 296 296 296 296 296 296 296 296 296 297 297 297 297 297 297 298 298 298 298 299 299 299 299 299 299 299 299 301 304 309 314 317 318 319 319 321 325 327 327
302 302 301 301 301 301 300 300 300 300 300 300 300 299 299 299 299 298 298 299 298 298 298 298 298 298 298 298 297 297 297 297 297 296 296 296 296 296 296 296 296 296 296 296 296 296 296 296 296 296 295 296 296 296 296 296 296 296 296 297 297 297 297 297 298 298 298 299 299 299 299 299 299 299 300 302 306 310 314 317 319 319 321 325 328
301 301 301 301 301 301 300 299 299 299 299 300 300 299 299 299 299 298 298 298 298 298 298 298 298 298 297 297 297 296 296 296 296 296 296 295 295 295 295 295 295 295 295 295 295 295 296 296 295 295 295 295 295 295 295 295 296 296 296 296 296 296 297 297 297 297 298 298 298 299 299 299 299 299 299 300 301 304 306 310 314 318 319 321 324
302 301 301 301 301 301 300 299 299 299 299 299 299 299 299 298 298 298 298 298 298 298 298 298 298 297 297 296 296 296 296 296 296 295 295 295 295 295 295 295 295 295 295 295 295 295 295 295 295 295 295 295 295 295 295 295 295 295 295 295 296 296 296 296 296 297 297 297 297 298 299 299 299 299 299 299 299 300 302 304 306 311 316 319 320
302 301 301 301 301 300 299 299 299 299 299 299 299 298 298 298 298 298 298 298 298 298 298 298 297 296 296 296 296 296 296 296 295 295 295 295 295 295 295 295 294 294 294 295 295 295 295 295 295 295 295 295 295 295 295 294 294 295 295 295 295 296 296 296 296 296 296 296 296 297 298 298 299 299 299 299 299 299 300 301 301 303 307 314 319
302 301 302 301 300 300 299 299 299 299 299 299 298 298 298 298 297 297 297 298 297 297 297 297 296 296 296 296 296 295 295 295 295 295 295 295 295 295 294 294 294 294 294 294 294 294 294 294 294 294 294 294 294 294 294 294 294 294 294 294 295 295 295 295 296 296 296 296 296 296 297 297 298 298 299 299 299 299 299 299 300 301 301 305 312
302 301 301 300 300 299 299 299 299 299 299 298 298 298 297 297 297 297 297 297 297 297 297 296 296 296 296 295 295 295 295 295 295 295 294 294 294 294 293 293 293 293 293 293 293 293 293 293 293 293 293 293 293 293 293 293 293 293 294 294 294 294 294 295 295 296 296 296 296 296 297 297 297 297 298 298 299 300 300 299 299 300 300 300 303
302 301 300 300 299 299 299 298 298 298 298 298 297 297 297 297 297 297 297 297 296 296 296 296 296 296 295 295 295 295 295 294 294 294 294 294 293 293 293 292 292 292 292 292 292 292 292 292 292 292 292 292 292 292 292 292 292 293 293 293 294 293 293 294 294 295 295 295 296 296 296 297 297 297 297 297 298 299 299 300 299 299 299 300 300
301 300 300 299 299 299 298 298 298 298 298 297 297 297 297 296 296 296 296 296 296 296 296 296 295 295 295 295 295 295 294 294 294 294 294 293 293 292 292 292 292 292 292 292 291 291 291 291 291 291 291 291 291 291 291 291 292 292 293 293 293 293 293 293 294 294 294 295 295 296 296 296 296 297 297 297 297 298 298 299 299 299 299 299 299
300 299 299 299 298 298 298 298 298 297 297 297 296 296 296 296 296 296 296 296 296 296 295 295 295 295 295 295 295 294 294 294 293 293 293 293 292 292 292 291 291 291 291 291 291 291 291 291 291 291 291 291 291 291 291 291 291 292 292 292 293 293 293 293 293 294 294 294 295 295 295 296 296 296 296 296 297 297 297 297 298 298 299 299 299
299 299 298 298 298 298 297 297 297 297 296 296 296 296 296 295 295 296 296 296 296 295 295 295 295 295 295 295 294 294 293 293 293 293 292 292 291 291 291 291 291 290 290 290 290 290 290 290 290 290 290 290 291 291 290 290 291 291 292 292 292 292 293 293 293 293 294 294 294 295 295 295 295 295 295 295 296 296 297 297 297 297 298 299 299
298 298 298 298 297 297 297 297 297 297 296 296 296 296 295 295 295 296 295 296 296 295 295 295 295 295 294 294 294 293 293 293 292 292 292 291 291 291 290 290 290 290 290 290 290 290 290 290 290 290 290 290 290 290 290 290 290 290 291 292 292 292 292 292 292 293 293 293 294 294 293 293 294 294 294 294 295 295 296 296 296 297 297 297 298
299 298 298 297 297 297 297 297 297 296 296 296 295 295 295 295 295 295 296 295 295 295 295 294 294 294 294 294 293 293 293 292 292 292 291 290 290 290 290 290 290 290 290 290 290 291 291 290 290 290 290 289 289 289 289 289 289 289 289 290 291 292 292 291 292 293 294 294 293 292 292 292 293 293 293 294 294 294 295 295 296 296 296 297 297
299 298 298 297 296 296 296 296 296 296 296 295 295 295 295 295 295 295 296 295 295 295 294 294 294 294 293 293 293 293 292 292 291 291 290 290 290 290 290 290 290 290 290 290 290 290 290 290 290 289 289 289 289 289 288 288 288 288 288 289 290 290 291 292 293 294 293 292 291 291 291 292 292 292 292 293 293 293 294 294 295 295 295 297 298
298 298 297 297 296 296 296 296 296 296 295 295 295 295 295 295 295 295 295 295 294 294 294 293 294 294 293 293 293 292 292 291 291 290 290 290 290 290 290 290 290 290 290 290 290 290 290 290 289 289 289 289 289 288 288 288 288 287 287 288 288 289 291 292 292 292 291 290 291 291 291 291 291 292 292 292 292 293 293 294 294 294 295 295 296
299 298 297 297 297 296 296 296 296 295 295 295 295 294 294 295 295 295 295 295 294 293 293 293 293 293 293 292 292 292 291 291 290 290 290 290 290 290 290 290 290 290 290 290 290 290 290 289 289 289 289 288 288 288 288 288 287 287 286 287 287 289 290 290 289 291 291 290 290 290 290 291 291 291 291 291 291 292 292 293 293 294 294 294 295
300 299 298 297 297 296 296 296 295 295 295 295 294 294 294 295 295 294 294 294 294 293 293 293 293 293 292 292 292 292 291 291 290 290 290 290 290 290 290 290 290 290 290 290 290 290 290 289 289 289 288 288 288 288 288 287 287 287 287 286 286 287 288 287 287 289 290 289 290 290 290 290 290 290 291 291 291 292 292 292 293 293 294 294 294
301 300 298 297 296 296 295 295 295 295 294 294 294 294 294 294 294 294 294 294 294 293 293 293 293 293 293 292 292 291 291 290 290 290 290 290 290 290 290 290 290 290 290 290 290 290 290 289 289 289 288 288 287 287 287 287 287 286 286 286 286 286 285 286 286 287 288 289 289 289 289 290 290 290 290 291 291 291 291 292 292 293 293 293 294
303 301 299 297 296 295 295 295 295 294 294 294 294 294 294 294 294 294 294 294 294 293 293 293 293 293 293 292 292 291 291 290 290 290 290 290 290 290 290 290 290 290 290 290 290 290 289 289 289 288 288 288 287 287 287 287 287 286 286 286 286 285 285 285 285 285 285 287 289 289 289 289 290 290 290 291 291 291 292 292 292 292 292 293 294
303 302 300 297 296 295 294 294 294 294 294 293 293 293 293 293 293 293 293 293 293 293 293 293 292 292 292 292 291 290 290 290 290 290 290 290 290 290 290 290 290 290 290 290 289 289 289 289 288 288 287 287 287 286 286 286 286 286 286 286 286 285 285 284 284 284 284 286 287 288 289 289 289 290 290 291 291 291 292 292 291 292 293 294 294
303 302 300 297 296 295 294 294 294 294 293 293 293 293 293 293 293 293 293 293 292 292 292 292 292 292 291 291 290 290 290 290 290 290 290 290 290 290 289 289 289 289 289 289 289 289 289 288 288 287 287 286 286 286 286 286 286 286 286 286 286 285 284 284 284 284 285 286 287 288 288 289 289 290 289 290 290 291 292 293 293 292 294 295 295
302 301 299 298 296 295 294 294 294 293 293 292 292 292 292 292 293 293 293 292 292 292 292 292 291 291 291 290 290 290 289 289 289 289 289 290 289 289 289 289 289 289 289 289 289 288 288 287 287 286 286 286 286 285 285 286 286 286 286 286 286 285 284 283 284 284 285 285 286 287 287 288 288 289 289 289 290 291 292 293 293 293 294 296 296
Wind_Speed
1 1 3 2 2 4 4 2 2 3 3 3 3 2 2 2 3 3 3 4 4 4 4 4 4 4 4 3 3 4 4 4 4 4 4 4 4 4 4 4 4 5 5 6 7 8 8 9 10 10 10 10 12 11 10 10 10 10 10 10 9 9 9 10 11 11 11 11 11 12 12 12 12 11 11 11 10 11 12 11 11 11 11 11 11
1 1 1 1 2 5 6 4 4 5 5 5 4 4 3 4 4 3 2 2 2 4 5 5 5 6 6 5 5 5 6 6 6 6 6 6 6 6 7 6 5 6 6 6 6 7 7 8 9 10 11 11 12 12 11 10 10 10 10 11 11 10 10 10 11 11 12 13 13 13 13 13 13 12 12 12 11 12 12 11 11 11 12 13 13
3 3 3 2 2 5 6 6 7 7 7 7 6 6 6 6 6 5 5 3 3 4 4 5 5 4 5 5 6 7 7 8 8 8 8 8 8 8 9 8 7 7 7 7 7 7 7 8 8 9 11 12 13 13 12 10 9 9 9 10 11 11 11 11 11 12 12 13 14 14 14 13 13 14 14 13 13 12 13 11 10 10 12 14 15
3 4 4 2 2 4 5 6 8 8 9 9 9 9 9 8 8 7 7 7 7 6 6 6 6 5 5 4 5 6 7 8 9 9 9 9 10 10 10 10 9 8 8 8 8 8 8 8 9 9 9 11 13 14 14 12 10 9 8 9 10 12 12 12 12 13 13 13 15 15 15 13 13 15 16 15 14 13 13 12 12 10 12 15 15
3 4 3 3 3 4 5 6 7 8 10 11 11 11 11 10 10 9 9 9 9 9 9 8 8 8 7 6 5 5 5 6 6 7 8 9 10 10 10 10 10 9 9 9 9 9 9 9 10 10 10 10 12 13 15 15 13 10 9 8 9 11 12 12 13 13 14 14 15 15 15 13 14 15 16 17 16 15 15 13 13 12 12 15 16
4 4 4 4 5 5 6 6 6 7 9 11 12 13 13 12 12 12 11 11 11 11 11 11 10 10 10 10 9 8 8 7 7 7 7 8 9 10 10 10 10 10 10 9 9 10 10 10 10 11 12 12 12 13 14 15 15 13 11 10 9 9 11 12 12 13 14 14 15 15 14 14 14 16 17 17 17 16 16 14 13 13 13 15 17
4 5 5 5 5 6 6 6 7 7 8 10 11 12 13 13 14 14 14 14 14 14 14 14 14 14 14 14 13 12 12 11 11 11 11 10 11 12 12 12 12 12 11 10 10 10 11 11 11 11 12 13 13 13 14 15 15 15 14 12 11 10 11 11 11 12 14 15 15 16 14 14 15 16 18 18 18 18 17 15 14 14 14 15 17
3 3 4 4 5 6 6 6 7 7 8 9 10 11 11 12 13 14 15 15 16 16 16 16 16 17 17 17 16 15 15 14 14 15 14 13 14 14 14 15 14 14 13 12 11 11 11 11 12 12 13 13 14 13 13 14 15 15 15 14 13 12 12 12 12 11 12 14 15 17 16 17 17 17 18 19 19 19 18 16 15 15 15 16 18
2 1 2 3 4 5 6 6 6 7 7 8 9 9 10 11 11 12 13 14 15 16 17 17 18 18 18 18 18 19 19 18 18 18 17 15 15 15 14 15 15 15 15 14 13 12 11 11 12 12 13 15 15 14 15 15 15 15 16 16 15 14 13 13 13 12 12 13 14 17 18 19 20 19 19 19 20 20 19 17 17 17 16 16 18
2 1 0 2 3 4 5 5 6 6 7 7 8 9 9 9 10 10 11 11 12 13 14 16 17 18 19 19 20 20 20 20 20 20 19 18 18 17 16 17 17 16 16 16 17 16 15 14 14 14 15 15 16 16 16 16 16 16 16 17 17 17 16 15 14 13 12 12 14 16 18 19 20 21 20 20 20 20 20 20 19 18 17 17 18
3 2 1 1 3 4 5 5 6 7 8 8 8 9 9 9 9 9 9 10 10 11 12 13 14 15 16 18 19 20 20 21 21 21 20 20 20 19 19 20 19 18 17 17 18 18 18 19 19 19 19 19 18 18 17 17 18 18 17 17 18 19 19 18 17 15 14 13 14 15 18 19 20 21 22 21 20 21 22 22 21 21 20 20 19
4 3 2 2 3 5 6 7 8 8 9 9 10 10 10 10 10 10 10 10 10 10 10 11 12 13 14 15 17 18 19 20 21 21 21 21 21 21 21 21 22 21 20 20 20 20 20 21 22 22 23 22 22 21 21 20 20 20 19 19 19 20 20 21 20 19 17 16 17 17 18 19 19 21 22 22 20 21 23 24 23 22 22 21 20
5 4 3 3 4 5 6 7 8 8 9 10 10 10 10 10 10 10 10 11 11 11 11 11 12 12 12 13 14 16 17 18 19 20 21 21 21 22 22 22 23 23 23 23 23 22 22 22 23 23 24 24 24 24 24 23 23 22 21 21 20 21 21 22 22 23 21 20 20 20 20 20 21 22 22 21 22 22 23 25 25 24 23 22 22
6 5 4 4 5 6 6 7 8 8 9 9 10 10 10 11 11 11 11 11 11 11 12 12 12 13 13 14 14 15 16 16 17 18 19 20 21 22 23 24 24 24 24 24 25 25 24 24 24 24 24 24 24 25 26 26 25 24 24 23 23 22 23 23 23 25 23 22 24 24 24 23 23 23 22 21 22 23 23 25 26 26 24 24 24
7 6 5 5 6 6 7 7 8 8 8 9 9 9 10 10 11 11 11 11 11 11 11 11 11 12 13 13 14 15 16 16 17 18 18 19 19 21 22 23 24 24 25 26 27 27 26 27 27 27 26 26 26 26 26 26 26 26 26 26 25 25 24 24 24 26 26 25 26 26 27 27 26 25 24 23 23 23 24 25 27 28 27 27 26
8 7 7 7 7 7 7 7 7 8 7 7 7 8 8 9 10 10 11 11 11 11 11 11 11 11 12 12 13 14 14 15 16 17 18 19 20 20 21 22 23 24 25 26 27 28 28 29 29 29 30 30 29 28 27 27 27 27 28 28 28 27 27 27 27 27 27 28 28 27 27 29 29 29 26 25 25 24 24 25 28 29 29 29 28
10 9 8 8 8 8 7 7 6 6 6 5 5 6 7 7 8 9 10 10 11 11 12 12 12 13 13 14 14 15 15 16 16 17 17 18 19 20 21 22 23 23 24 25 26 27 28 29 30 31 31 32 32 31 30 29 29 29 29 29 29 29 29 29 30 30 30 30 30 29 29 29 30 32 29 27 27 26 25 25 27 29 31 31 30
12 11 10 10 9 9 8 7 6 6 5 4 4 4 5 5 6 7 8 8 9 9 10 11 12 13 14 14 15 16 17 18 18 18 19 19 19 19 20 21 22 23 24 24 26 27 27 29 29 30 31 32 33 33 33 33 32 32 31 31 31 31 31 31 32 32 32 32 31 31 31 31 32 33 32 30 29 29 28 27 27 29 31 32 31
13 12 12 12 11 10 9 8 7 6 5 4 3 2 3 3 4 5 5 6 7 7 8 9 10 11 12 13 14 15 16 17 18 18 19 20 20 20 20 20 21 21 22 23 24 25 26 28 29 30 31 31 32 32 33 34 35 35 34 34 33 33 32 32 33 34 34 34 33 32 32 33 34 34 33 33 32 31 30 29 29 28 30 31 33
16 15 14 14 13 12 11 10 9 8 6 4 3 2 2 3 3 3 4 5 5 6 7 8 9 10 11 12 13 13 14 15 16 17 18 19 19 20 20 21 21 21 22 23 23 24 24 26 27 28 29 31 31 32 33 33 34 35 36 36 35 34 34 35 36 36 36 35 35 35 34 33 35 35 34 34 34 33 32 31 31 30 29 30 32
18 17 17 16 16 15 13 12 11 9 7 5 4 2 2 2 2 3 3 4 5 5 6 7 8 9 10 11 12 13 14 15 16 17 18 19 20 20 21 21 21 21 22 22 23 24 24 25 25 26 27 28 30 31 32 33 34 34 35 36 36 35 35 36 37 37 38 38 38 37 37 36 35 36 35 35 35 35 35 33 32 32 31 30 31
21 20 19 18 17 16 15 13 12 10 9 7 5 3 2 1 1 2 3 4 4 5 6 6 7 8 9 10 11 13 14 15 17 18 19 20 21 21 22 22 22 22 22 22 22 23 23 24 25 26 26 27 27 28 30 31 33 34 35 35 35 35 36 37 37 38 39 40 40 40 40 40 38 37 36 35 35 35 36 36 35 34 33 33 32
23 22 21 20 19 18 16 15 13 12 10 8 6 4 2 1 1 2 3 4 4 5 5 6 7 8 9 10 12 13 14 16 17 18 19 20 21 22 22 22 22 22 22 21 21 22 22 22 23 24 25 25 26 27 27 28 29 31 32 34 35 36 36 36 36 37 39 40 41 42 42 42 41 39 37 37 36 35 35 37 37 36 34 34 34
25 24 23 22 20 19 17 16 14 13 11 9 6 4 3 1 1 2 3 3 4 5 5 6 7 8 10 11 12 13 14 15 16 18 19 20 21 22 22 23 23 23 22 22 22 21 21 22 22 22 22 23 24 25 25 26 27 28 28 30 32 34 35 36 37 37 37 38 40 42 43 43 42 41 40 39 37 36 35 36 38 38 36 35 35
26 25 25 23 21 20 18 17 15 14 12 9 7 5 4 2 2 1 2 2 3 4 5 7 8 9 10 11 12 13 14 15 16 17 18 20 21 22 23 23 23 24 24 24 23 23 23 23 23 23 23 23 23 23 24 24 25 26 26 27 28 30 32 34 36 37 38 38 38 40 42 43 43 42 41 40 39 38 36 36 38 39 39 37 36
28 27 26 24 23 21 19 18 16 14 12 10 7 6 5 4 3 1 1 1 2 3 5 6 7 8 9 11 12 13 14 15 16 17 18 19 20 22 23 24 24 25 25 25 25 25 25 25 25 25 25 25 24 24 24 24 24 24 25 26 27 28 29 30 32 34 36 38 39 39 40 41 43 42 42 41 40 39 38 38 38 39 40 40 38
30 29 28 26 24 22 21 19 17 15 13 11 9 7 6 5 4 3 1 1 1 3 4 5 6 7 8 10 11 12 13 14 15 16 17 19 20 22 23 23 24 25 25 25 26 26 26 27 27 27 27 27 27 27 26 26 25 25 25 25 25 26 27 29 30 32 34 36 38 40 40 40 42 43 43 42 42 40 39 39 39 39 40 40 40
32 32 30 27 25 24 22 21 19 17 15 13 11 10 8 6 5 4 2 1 1 2 3 4 5 7 9 11 12 13 14 15 16 17 18 19 20 22 23 24 25 25 25 25 26 26 26 27 27 28 28 28 29 30 30 29 29 29 28 27 27 26 27 28 29 31 32 34 36 38 40 41 42 42 44 44 43 42 42 42 41 41 41 41 40
34 33 31 29 26 25 24 22 20 18 16 15 13 11 9 8 7 5 3 2 2 2 3 5 6 8 9 11 12 13 15 16 17 18 19 20 21 23 24 26 26 27 27 27 27 27 28 28 28 29 29 29 29 30 30 31 31 32 32 31 31 30 29 28 28 29 31 33 35 36 38 40 42 43 44 45 45 45 44 45 44 42 42 42 42
36 34 32 30 28 26 25 24 22 19 18 16 14 12 11 9 8 6 5 4 3 4 5 6 7 8 10 11 12 14 15 17 18 18 19 20 21 23 25 26 28 29 29 29 30 29 30 30 30 30 31 31 31 31 32 32 32 33 34 34 34 34 33 32 31 31 31 32 33 36 37 38 40 42 44 45 46 46 45 46 45 44 42 43 43
37 35 33 31 29 28 27 25 23 20 19 18 15 14 12 11 9 7 6 5 5 5 5 7 8 9 11 12 14 15 16 17 17 18 19 20 21 22 24 26 28 29 30 30 31 31 31 30 31 31 31 31 31 32 32 33 33 33 34 34 35 36 37 37 36 35 34 34 34 34 36 37 38 40 43 45 47 48 47 47 46 46 44 43 43
39 37 35 33 30 29 28 26 24 22 21 19 17 15 14 12 10 8 7 6 5 5 6 7 8 10 11 12 14 15 15 17 17 18 19 20 21 22 24 25 27 29 30 31 31 32 32 32 33 32 32 32 32 32 33 34 34 34 35 35 36 36 37 38 39 39 38 38 37 36 36 36 37 38 40 43 46 49 49 48 47 47 47 46 45
40 38 36 33 32 31 30 27 26 24 23 21 18 17 15 13 11 9 7 7 5 5 6 8 9 10 11 12 13 14 15 17 18 19 21 21 22 23 24 25 27 28 30 31 32 33 33 33 34 34 34 35 35 35 35 35 36 36 36 36 37 37 37 38 39 40 40 40 40 40 40 39 38 38 38 40 42 47 50 51 49 48 48 49 49
41 39 37 35 33 33 31 29 27 26 24 21 19 17 15 13 11 9 8 7 6 6 6 7 9 10 11 12 13 14 16 17 18 20 21 22 23 24 25 25 26 28 29 31 32 33 33 34 34 35 35 35 36 37 38 39 39 39 39 39 39 39 39 39 40 40 41 41 41 41 42 42 42 41 40 39 39 42 46 50 52 50 48 48 50
41 40 38 36 34 33 32 30 28 27 24 21 19 17 15 13 11 10 9 8 6 6 7 7 8 10 11 12 13 14 15 17 18 19 21 22 23 24 25 25 26 27 29 30 31 32 33 33 34 35 36 36 37 37 38 40 41 42 42 42 42 42 42 42 42 42 42 42 42 41 41 42 43 44 44 43 41 40 41 45 50 51 51 49 49
42 40 38 36 35 34 33 31 29 27 24 21 19 17 15 14 12 10 9 8 7 6 7 7 8 9 11 12 13 14 16 17 18 20 21 22 23 24 25 25 26 27 29 30 31 32 33 33 34 35 36 37 37 38 38 40 42 43 43 44 44 44 45 45 45 44 44 44 44 44 43 42 43 43 44 45 45 43 41 41 45 49 51 51 50
42 40 39 37 36 35 33 31 29 27 24 22 19 18 16 14 13 11 10 9 8 7 6 7 8 9 11 12 13 15 16 18 19 21 22 23 24 24 25 26 27 28 30 30 31 32 33 34 34 35 36 37 38 39 40 41 42 43 45 46 46 46 47 47 47 47 47 47 46 46 46 45 44 43 43 43 45 47 45 43 42 45 48 51 52
43 41 39 38 37 35 34 32 30 27 24 22 20 19 17 15 14 13 11 10 8 7 7 7 8 9 10 12 14 15 17 19 20 22 23 24 24 25 26 27 28 29 30 31 32 33 34 35 35 36 36 37 39 40 41 43 44 46 47 47 47 48 48 48 48 48 48 48 48 47 47 47 46 44 43 42 42 44 46 46 44 44 45 48 51
43 42 40 38 37 35 34 32 30 27 24 23 21 20 18 17 15 14 12 10 8 8 7 8 8 9 10 12 14 16 18 19 21 22 23 24 24 25 26 27 28 30 31 32 32 33 34 35 36 37 37 38 39 40 42 43 45 47 48 49 49 49 50 50 51 50 49 49 49 49 47 45 44 44 44 44 44 42 42 44 45 45 45 45 47
45 43 41 39 38 37 35 33 31 28 25 24 23 21 20 18 17 15 13 11 9 9 8 8 8 9 11 12 15 16 18 20 21 23 24 24 24 25 25 27 28 30 31 32 32 34 34 35 37 38 39 40 41 42 42 43 46 49 50 51 51 51 53 52 51 50 50 50 48 45 44 44 45 47 48 49 49 48 45 44 44 45 46 46 45
45 44 43 41 40 39 37 35 32 29 27 26 24 23 21 20 18 15 13 11 10 10 9 9 9 10 11 13 15 16 19 20 22 23 24 24 24 24 25 27 28 30 31 33 34 35 36 37 39 39 41 42 43 43 43 44 46 48 51 54 55 54 52 51 52 52 49 46 43 43 47 50 54 54 53 51 50 50 50 48 47 46 46 46 46
48 46 45 43 41 40 38 36 33 30 29 27 25 24 22 21 18 16 14 12 11 10 9 9 9 10 11 13 15 17 19 21 22 23 23 24 24 24 25 27 28 30 33 34 36 37 37 39 39 40 42 42 43 43 43 44 43 46 50 54 57 56 55 51 48 45 39 38 43 49 54 53 53 53 52 52 52 51 52 51 49 48 46 45 44
49 48 47 45 43 41 40 37 34 31 30 28 27 25 23 21 19 17 15 13 13 11 10 9 9 10 12 13 15 17 19 21 22 23 23 23 23 24 26 28 30 31 34 36 36 37 37 38 39 41 42 42 43 43 44 43 43 46 43 40 45 53 58 47 32 32 38 45 52 52 53 53 51 53 53 55 56 54 54 53 51 50 48 45 42
50 49 48 47 45 43 41 39 35 33 31 29 28 26 25 23 20 18 16 14 13 11 10 9 10 11 12 14 16 17 19 21 22 22 23 23 23 25 27 29 30 32 34 35 36 37 38 39 39 40 42 43 44 44 44 44 44 44 36 32 37 36 38 36 37 50 54 51 53 48 49 55 55 55 55 55 55 54 53 53 53 52 49 49 49
51 51 51 49 47 45 43 40 36 34 32 31 29 28 26 24 22 20 17 16 14 12 11 10 10 11 13 15 16 18 19 20 21 22 22 23 24 25 28 29 31 32 34 36 37 37 38 39 40 40 41 42 44 45 45 45 45 43 37 34 29 21 27 39 49 62 61 52 52 54 54 54 53 53 53 56 57 56 55 54 55 55 54 54 53
51 52 52 50 48 46 43 40 37 35 33 31 30 29 27 25 23 21 19 17 15 13 11 11 11 12 13 15 17 19 19 20 21 21 22 23 24 26 28 30 31 33 34 36 37 38 39 40 40 41 41 41 43 45 46 46 45 45 43 38 30 27 37 46 43 48 61 64 60 57 57 54 52 52 54 56 58 57 55 54 55 56 56 55 54
49 51 52 51 48 46 44 40 37 36 34 33 32 31 29 27 24 22 20 18 15 13 12 12 12 13 14 15 16 18 19 19 20 21 22 23 24 25 27 29 31 33 34 36 37 38 39 40 41 41 42 42 42 45 46 47 46 45 44 42 40 38 40 43 40 39 50 64 67 62 59 58 57 56 57 56 55 58 60 58 56 57 57 56 55
45 49 51 51 49 47 44 41 38 37 35 34 33 32 30 27 25 23 21 18 15 14 13 13 13 14 15 16 17 18 18 19 20 21 22 23 24 26 28 30 32 34 35 37 38 39 40 41 42 42 43 44 43 45 46 47 47 46 45 45 45 43 40 40 43 40 37 47 64 68 61 58 57 57 58 56 55 55 57 60 59 57 57 57 56
42 46 49 50 49 47 45 41 39 38 37 36 34 32 30 28 25 23 21 18 16 14 14 14 14 15 16 17 18 17 18 19 20 21 22 23 25 26 29 31 33 35 36 38 39 40 42 42 43 44 44 45 45 46 47 47 48 48 48 47 46 44 43 42 41 40 37 38 49 63 64 57 56 62 61 55 57 55 50 55 61 57 54 53 54
39 42 46 49 49 48 46 43 41 39 38 37 35 33 31 28 26 23 21 18 16 15 15 15 15 16 17 18 18 18 18 19 20 21 21 23 25 27 30 31 33 35 37 39 40 41 43 43 44 45 45 46 46 46 47 48 48 49 48 48 48 45 43 43 39 34 33 34 39 53 64 59 52 62 67 58 56 56 48 45 50 54 50 46 47
35 40 45 48 49 49 47 45 43 41 39 38 36 34 31 29 26 23 21 18 17 16 16 16 17 18 18 18 19 19 19 20 20 21 22 23 26 28 30 32 34 36 38 40 41 42 43 44 45 45 46 46 46 46 47 48 49 50 50 48 49 48 44 45 43 36 32 33 35 42 57 63 55 57 67 63 54 51 47 42 44 49 48 45 45
Wind_Direction
345 284 267 278 268 251 256 231 217 231 234 245 258 266 290 284 264 267 253 258 260 266 269 252 253 263 256 251 257 261 265 265 266 271 280 289 286 275 286 300 311 319 326 328 329 332 334 337 338 340 339 338 339 339 333 323 313 307 305 302 299 301 298 287 274 264 260 261 255 250 249 246 251 256 258 262 266 269 271 271 266 259 251 243 239
175 144 129 343 289 258 261 256 264 267 259 254 256 258 275 271 256 266 259 274 292 274 274 271 273 276 271 268 264 262 259 261 268 272 276 282 283 274 269 270 275 287 298 308 315 318 321 326 331 334 334 334 334 335 337 334 325 314 308 304 299 294 294 292 284 272 261 259 258 253 251 248 249 253 255 257 261 267 272 272 266 256 248 244 240
119 87 58 11 300 261 267 265 273 279 276 271 271 271 273 274 267 270 262 266 280 271 277 284 281 284 287 282 274 271 266 264 269 271 272 274 279 275 270 271 272 276 280 289 300 305 304 305 314 321 322 325 325 327 327 329 333 327 315 307 303 298 292 290 290 284 271 260 256 257 257 256 255 256 255 255 259 266 272 272 266 255 245 243 241
79 50 36 353 310 284 279 270 269 271 275 276 279 280 279 277 272 273 270 271 274 276 280 281 282 283 295 300 291 286 280 273 274 275 273 273 277 275 270 272 275 274 269 274 286 293 292 290 295 300 304 311 315 318 318 317 325 330 320 310 306 302 295 289 288 287 283 271 260 256 257 261 263 261 258 255 257 263 269 271 267 258 246 242 240
35 19 7 326 305 308 302 291 281 272 273 274 279 281 282 281 276 273 273 277 277 277 276 280 283 278 280 287 292 295 293 286 282 280 275 276 281 281 274 271 274 275 269 270 277 284 285 281 283 287 289 293 300 305 310 313 316 319 318 312 305 302 297 291 286 284 283 279 270 262 257 260 265 265 262 257 256 259 263 267 267 261 250 243 239
359 355 351 333 312 316 316 312 303 290 283 275 276 275 277 280 279 278 276 276 275 276 276 278 280 277 276 277 279 280 284 286 288 286 283 283 283 283 279 272 270 272 273 277 280 281 281 278 277 280 280 283 288 291 299 306 308 309 311 312 307 301 298 293 287 282 281 279 277 271 263 262 265 263 262 258 255 258 260 262 264 262 256 245 237
343 350 352 340 328 328 324 321 316 306 298 288 284 280 279 279 278 278 278 278 277 277 277 278 278 278 278 279 281 279 279 280 283 284 285 286 284 285 284 278 271 269 271 278 283 284 283 279 279 277 273 274 277 282 288 294 300 304 304 305 305 302 298 297 292 284 279 278 277 274 265 260 262 261 261 258 253 256 260 262 263 261 259 251 239
315 344 351 344 342 335 332 330 325 316 309 303 299 295 292 289 285 282 281 281 280 280 279 280 280 280 280 280 281 280 280 281 283 285 287 289 287 288 288 284 277 270 266 271 277 282 285 282 279 277 274 271 269 273 278 283 289 294 296 297 296 296 294 294 294 290 283 278 277 274 268 259 258 259 261 259 252 253 257 260 262 261 260 255 244
262 338 349 352 345 332 334 332 329 325 320 316 312 309 306 301 298 293 289 286 283 283 281 281 280 280 281 281 281 281 282 283 285 286 287 289 289 289 290 287 282 275 267 266 269 274 281 280 278 276 274 271 267 268 270 272 276 281 287 291 289 288 287 285 285 287 287 284 280 275 272 267 263 260 259 259 255 252 254 254 257 259 259 257 250
198 190 317 347 332 326 328 329 328 326 325 323 322 318 315 311 307 302 298 294 290 287 284 283 281 280 279 280 280 280 282 283 284 284 285 286 286 287 287 286 284 282 278 273 269 270 273 272 272 272 272 273 269 267 267 268 269 272 275 280 284 285 284 280 279 280 282 283 282 278 273 269 268 266 260 258 256 253 252 250 251 252 253 253 252
186 194 219 313 310 322 323 326 327 325 328 323 323 320 318 316 313 310 306 302 297 294 291 289 286 285 284 282 282 281 282 282 282 283 283 283 283 284 283 282 283 283 282 278 273 272 272 271 272 272 275 278 276 271 269 268 269 269 268 270 274 279 281 280 279 277 274 269 270 274 274 270 267 268 265 261 257 253 252 251 250 249 250 251 251
197 217 232 287 306 318 320 321 322 322 323 319 320 317 317 315 314 314 311 309 305 303 300 298 295 293 291 289 288 287 286 285 285 284 283 283 282 282 281 281 281 280 280 278 277 275 273 273 273 273 275 278 278 274 271 271 271 271 269 267 267 270 275 278 279 276 273 268 263 263 268 271 268 266 265 264 260 253 251 251 251 251 252 253 252
213 234 244 282 297 306 310 311 313 313 315 314 316 316 317 316 315 314 312 313 310 310 308 306 304 301 299 296 295 292 291 290 289 288 287 287 285 284 283 282 281 280 280 279 279 277 276 274 273 273 274 275 275 274 273 273 272 273 272 269 268 267 268 272 275 276 274 272 269 265 264 267 268 265 264 265 262 256 252 251 251 252 254 254 252
220 236 249 275 282 294 299 301 304 305 309 310 313 315 317 316 318 318 316 315 312 313 311 311 309 307 306 303 302 300 299 297 295 294 292 291 289 288 287 286 284 283 282 280 279 278 278 276 275 274 273 273 272 272 273 273 271 270 271 270 269 268 268 268 270 273 274 273 272 272 269 267 266 266 265 265 262 259 255 251 250 250 253 253 251
223 235 251 267 273 283 287 294 298 301 306 308 313 315 317 319 320 320 320 320 319 319 318 318 318 316 314 312 310 307 305 303 302 300 298 296 294 293 291 289 289 287 285 283 282 280 279 278 277 276 275 274 273 272 272 271 269 268 268 268 269 269 269 269 269 270 271 273 273 273 273 272 269 266 266 265 262 260 257 253 251 249 250 253 253
224 235 247 257 263 270 275 284 290 298 304 307 314 317 321 322 322 323 324 326 328 330 333 334 335 335 334 332 329 324 320 315 311 308 304 301 298 296 294 293 292 291 289 288 286 284 282 280 278 277 276 275 274 273 271 269 268 267 268 267 268 268 269 271 272 271 270 271 273 273 272 273 272 270 267 265 263 260 257 254 253 252 250 252 254
223 231 241 247 254 258 264 272 277 285 289 296 305 312 319 320 322 323 323 326 330 334 339 343 346 349 350 350 349 346 342 338 333 326 320 314 309 304 299 297 294 292 291 289 289 287 286 284 282 280 278 276 275 274 272 270 267 267 267 268 269 269 269 270 272 273 272 270 271 272 272 272 272 272 270 267 265 262 259 254 253 254 254 253 254
222 229 235 240 244 247 251 254 258 261 262 272 287 305 315 320 322 321 324 326 331 337 341 346 350 353 355 355 354 353 352 349 345 341 337 331 325 319 313 307 302 298 294 291 289 288 287 286 286 284 282 280 278 277 275 273 271 268 267 267 268 269 269 269 271 272 272 271 269 270 272 272 271 272 271 268 265 263 262 258 253 253 255 256 255
221 226 230 235 237 239 239 240 242 241 244 251 268 300 316 325 329 330 337 337 341 345 347 351 354 356 356 356 355 354 352 350 348 344 341 337 333 329 325 320 314 310 304 300 296 292 289 287 286 286 285 284 282 280 278 276 274 273 270 268 266 266 267 268 268 269 270 270 269 268 269 271 272 272 271 270 267 264 263 261 258 253 253 255 256
219 223 226 231 232 233 233 233 233 233 239 247 266 298 324 341 351 354 354 354 355 353 356 357 357 357 356 355 354 353 351 348 346 343 341 338 335 332 329 326 322 319 315 311 307 303 298 294 290 287 286 284 284 283 281 280 278 276 275 273 270 268 266 265 265 266 268 268 269 269 268 268 270 271 270 270 268 265 262 261 260 257 254 254 256
217 220 223 227 229 231 230 231 232 234 241 249 265 285 317 355 13 14 14 8 3 3 3 1 359 357 355 354 351 350 348 346 345 343 341 339 337 336 333 330 327 325 322 318 315 312 309 305 301 297 293 290 287 284 282 281 280 279 278 278 276 274 270 266 265 264 265 266 268 269 269 268 268 269 269 268 267 265 263 262 261 259 256 255 256
216 218 221 225 227 230 231 232 234 237 244 251 259 266 283 345 27 24 25 17 13 11 7 5 1 358 356 353 350 349 347 346 345 344 342 341 340 339 337 335 332 330 327 324 321 319 315 313 310 307 304 301 297 293 289 285 282 281 280 279 279 277 275 272 269 267 265 265 266 267 268 268 267 267 267 266 266 265 263 261 261 260 258 256 256
216 218 221 223 226 228 230 232 234 238 242 247 250 252 259 289 14 28 25 16 15 11 8 6 2 1 357 354 352 351 348 346 344 342 340 339 338 337 337 335 334 333 331 329 326 324 321 318 316 313 311 308 306 303 299 295 291 287 283 281 279 277 276 275 273 271 268 266 266 267 268 268 268 266 266 265 265 265 263 261 260 259 259 257 256
216 218 221 222 225 226 228 231 232 235 237 239 242 244 251 274 325 7 10 7 6 8 9 7 7 5 2 360 357 353 350 346 342 339 336 335 335 333 333 332 332 332 331 331 329 328 326 324 322 319 317 314 312 309 306 303 300 296 292 287 282 279 277 276 275 273 271 268 266 266 267 268 268 267 265 263 263 263 262 261 259 258 258 258 257
218 220 222 223 224 226 228 229 231 232 233 235 237 241 246 258 280 323 345 355 359 6 9 10 12 9 7 4 0 357 352 347 342 338 335 333 332 331 331 330 330 329 330 330 330 330 330 329 328 327 325 323 320 316 313 309 306 303 299 295 290 285 281 278 276 275 273 272 269 267 266 267 267 267 266 263 261 260 260 260 260 258 257 257 256
220 221 222 223 224 226 228 228 229 230 231 233 236 240 239 246 255 260 299 348 4 10 15 16 17 12 10 6 1 358 352 347 342 338 335 333 332 332 332 331 331 330 330 330 330 330 330 330 330 329 328 327 326 323 320 316 313 309 305 301 297 293 289 284 280 277 274 273 271 269 267 267 267 267 266 264 261 259 259 259 259 259 258 257 256
219 221 222 224 225 227 229 228 228 229 231 233 234 237 238 240 242 240 262 330 6 11 16 17 14 9 7 2 359 355 351 346 342 338 336 335 335 335 334 333 333 332 331 331 331 331 330 330 329 329 328 327 327 325 324 322 319 315 311 307 303 299 295 291 287 283 279 275 272 270 269 267 266 266 266 265 262 259 257 257 257 258 257 257 257
219 221 223 224 226 228 229 228 228 229 230 233 235 237 239 240 239 243 254 276 328 351 358 359 359 0 359 356 354 350 347 345 344 343 340 338 338 337 336 334 333 332 332 331 331 331 330 330 329 328 327 327 326 325 324 323 322 320 317 314 310 306 301 296 292 289 285 281 277 273 270 268 266 266 266 265 264 260 257 255 255 256 256 257 257
221 222 223 225 227 229 229 229 229 230 231 233 236 238 240 241 242 244 250 262 289 317 328 339 347 351 351 349 347 346 345 347 347 346 343 341 339 337 336 334 334 332 332 331 331 331 331 330 330 329 327 326 325 324 323 323 322 321 320 318 316 313 308 304 299 294 290 287 284 279 274 270 267 266 265 265 265 263 260 256 255 256 257 256 257
223 223 224 226 228 229 229 229 229 230 232 234 235 237 238 238 240 241 248 264 281 305 318 331 340 342 343 342 344 344 345 346 345 344 342 340 339 338 337 334 333 332 331 331 330 330 330 330 329 328 327 326 325 324 323 322 321 320 319 318 317 315 313 310 306 301 297 292 289 285 281 276 270 266 264 264 264 264 262 259 256 255 256 257 257
223 224 224 226 228 230 230 229 229 230 231 233 232 233 234 234 236 239 247 264 279 300 316 326 333 335 337 339 342 342 342 341 340 340 339 338 338 337 336 334 332 330 329 329 328 328 328 327 326 325 325 324 323 323 322 320 319 318 317 317 316 315 314 313 310 308 304 300 295 290 286 282 277 271 266 263 263 263 263 262 259 256 254 255 256
223 224 225 227 228 230 229 228 228 228 229 230 229 230 231 232 234 238 247 260 275 295 312 321 327 331 335 338 338 337 336 335 335 336 336 337 337 336 334 332 330 329 328 327 326 326 325 325 324 323 323 321 321 320 319 318 317 317 316 315 314 313 313 313 311 310 308 305 302 297 292 287 283 277 271 265 262 262 262 262 261 258 255 253 254
224 225 226 228 229 228 227 226 226 227 229 229 229 230 230 231 234 238 246 257 271 291 307 316 323 328 332 334 333 332 332 333 334 334 335 335 334 333 332 330 329 327 326 326 325 325 324 324 323 322 322 321 321 320 319 317 316 315 314 314 312 312 311 310 310 309 308 307 305 302 298 294 289 284 278 272 266 262 261 261 261 260 257 254 253
227 227 228 228 228 228 226 226 226 227 229 229 229 229 230 231 233 237 245 256 269 287 301 311 319 324 327 329 329 329 330 331 332 332 332 331 331 330 329 327 327 326 325 324 324 323 322 322 321 321 321 320 320 319 319 318 316 315 314 313 312 312 311 309 308 308 307 306 305 303 301 299 295 291 286 279 272 266 262 260 260 260 258 256 254
229 229 230 229 227 227 226 226 227 228 229 229 229 228 229 230 232 238 246 256 266 280 295 307 316 322 324 325 326 326 327 328 329 329 328 328 328 326 325 325 325 324 323 323 322 321 321 321 321 320 320 319 319 319 318 317 316 315 315 314 313 313 311 309 308 307 306 305 303 302 301 299 297 295 292 287 281 274 267 263 261 260 259 257 254
230 231 231 229 227 227 226 226 227 229 229 228 228 228 228 230 233 238 244 252 260 273 290 304 313 319 321 321 322 322 323 325 326 326 325 324 324 323 323 323 324 324 323 322 322 321 321 321 321 320 320 319 318 318 317 316 315 314 314 313 313 312 311 310 309 308 307 305 304 303 301 298 297 295 293 291 288 282 275 268 264 261 260 258 255
231 232 230 228 228 227 226 227 228 229 229 228 226 226 228 230 232 235 240 246 254 269 285 298 308 314 316 317 318 320 322 324 324 323 322 321 321 321 322 323 324 324 324 324 324 323 323 322 322 321 320 320 319 319 318 317 315 313 312 312 312 312 311 310 309 308 307 305 304 303 302 301 298 295 293 292 291 288 283 277 270 265 262 260 257
232 231 230 229 229 229 228 228 229 229 228 226 225 226 227 228 229 232 237 242 251 266 279 292 303 308 312 316 318 321 322 322 322 321 319 318 319 320 322 324 325 325 325 325 325 324 324 323 322 321 321 320 319 319 318 317 315 313 312 312 312 310 309 309 308 308 307 306 304 304 303 302 301 298 296 293 290 289 287 284 278 272 266 263 260
231 230 229 229 229 229 229 229 229 228 226 225 224 225 225 225 227 230 234 241 250 262 276 288 298 306 313 318 320 322 321 320 319 317 315 315 317 319 322 324 325 325 325 324 324 324 323 323 322 322 321 320 319 318 317 316 315 314 313 312 311 311 310 309 309 308 307 307 306 306 304 303 302 301 301 298 295 291 288 287 285 280 273 268 265
229 230 229 228 228 228 229 229 228 226 225 224 223 223 223 224 226 229 234 239 248 260 273 284 295 306 315 320 321 321 319 317 315 313 313 313 315 319 322 325 325 325 324 324 324 324 324 324 323 323 321 320 319 318 318 317 315 314 314 314 312 311 311 310 310 309 309 308 307 306 305 304 303 302 303 303 300 296 293 290 287 284 280 274 270
228 229 229 229 229 229 229 229 228 225 224 225 224 223 223 225 226 229 234 239 248 259 268 281 295 307 314 318 318 318 315 312 310 310 311 312 315 320 323 325 325 324 324 323 324 325 325 324 323 322 321 320 319 319 319 318 318 317 317 315 313 312 312 312 312 311 311 310 308 307 307 306 305 304 304 303 301 299 298 295 292 288 285 281 277
228 229 230 229 229 229 229 229 228 226 226 225 224 224 225 226 227 229 234 241 249 256 264 278 294 305 310 313 313 313 311 308 307 307 308 311 315 320 323 324 324 324 324 324 324 324 323 322 322 321 320 319 318 319 318 318 319 318 318 317 315 316 314 313 314 314 313 310 307 306 305 305 303 303 303 301 299 298 297 296 295 292 289 286 282
230 230 230 229 229 229 229 229 227 226 225 225 224 225 226 226 229 231 234 240 247 254 262 276 291 301 305 307 309 309 307 306 305 305 306 310 316 320 323 323 324 324 324 323 322 321 320 320 320 319 318 318 317 317 317 317 316 316 319 317 316 317 314 315 318 309 304 302 302 302 301 301 300 299 299 298 298 297 296 294 293 292 290 287 282
229 230 230 229 228 229 229 228 226 225 225 225 225 225 225 226 229 232 235 239 245 252 261 274 288 297 302 303 305 305 304 303 302 303 306 312 318 321 323 324 324 323 321 319 318 319 319 318 318 317 316 316 315 315 314 314 314 315 317 312 313 314 307 310 311 301 301 303 302 302 301 300 300 299 298 296 295 295 294 293 292 291 289 287 284
229 231 231 230 230 229 229 228 227 226 225 226 225 224 226 227 228 230 234 237 242 249 258 273 284 293 298 300 302 302 301 301 301 304 308 314 319 322 323 323 322 320 318 317 317 317 317 317 316 315 315 314 313 313 312 312 312 311 309 307 309 304 293 304 308 303 302 303 302 301 300 299 299 298 297 295 295 294 293 292 292 290 289 289 288
232 233 233 232 232 231 229 228 226 226 226 226 225 226 227 228 228 229 232 236 241 248 257 272 281 287 294 297 299 299 299 301 302 306 310 314 318 320 320 319 318 317 315 315 315 316 315 315 314 313 313 312 311 311 310 311 310 308 307 304 299 292 294 301 305 302 301 301 300 299 299 297 296 295 295 294 294 293 292 291 291 290 290 290 288
235 235 234 233 232 231 229 227 226 226 226 226 226 227 228 228 229 230 233 237 243 251 258 269 277 285 292 295 296 296 297 299 301 304 308 311 315 317 316 315 314 314 313 313 313 313 313 312 312 311 310 310 309 308 308 308 307 305 305 304 299 295 294 295 295 297 300 301 299 298 297 296 296 295 294 293 291 291 292 290 289 289 289 289 286
237 236 234 232 230 229 229 227 227 227 227 227 227 228 228 229 230 232 236 239 245 253 261 269 277 285 291 293 293 294 297 299 301 304 307 311 314 315 314 313 313 312 312 311 311 311 310 310 310 309 309 308 307 306 305 305 304 303 301 301 299 296 294 291 290 289 289 293 296 297 296 295 295 294 293 292 291 291 292 291 291 290 289 288 285
237 237 235 232 230 228 228 227 227 227 227 228 228 228 228 229 230 233 238 242 246 254 263 272 279 285 290 291 291 295 297 298 301 303 307 311 314 314 313 312 311 311 311 310 309 309 309 309 308 308 307 306 305 303 302 301 300 300 300 299 297 294 292 289 287 284 278 278 287 292 294 294 293 292 290 290 289 288 287 288 290 289 286 285 283
238 238 235 232 230 228 227 226 226 227 227 228 228 228 228 229 232 236 240 244 248 255 264 273 279 283 287 290 292 295 296 296 299 302 307 310 311 311 310 310 309 309 308 308 308 308 308 308 307 306 305 304 303 301 300 299 298 298 298 297 295 292 289 286 283 278 272 268 273 283 290 291 289 290 290 288 287 286 284 281 285 286 282 277 277
239 236 234 232 230 228 227 226 227 227 227 228 228 228 229 230 233 237 241 245 251 257 265 272 277 281 285 288 291 293 294 295 298 303 306 308 308 308 308 308 308 307 307 307 307 307 307 306 305 304 303 301 300 299 298 297 298 298 298 296 295 292 287 283 281 276 267 264 266 274 283 287 286 286 287 287 284 281 279 274 274 279 277 272 270